GLOBALSTAR M003 [-]

Last updated on Fri Dec 29 2023 00:02:56 GMT+0000 (Greenwich Mean Time)

1 25165U 98008D 23362.50407431 .00000042 00000+0 14079-2 0 9992 2 25165 51.9767 214.9927 0007134 297.1886 140.4025 12.11963874168234
UTC large
Height (km)
Speed (km/s)
/
Latitude / Longitude
Inclination (degrees)
Orbital Period (minutes)
Azimuth
Elevation
Range (km)
Doppler Factor

Next 0 passes for location: London (51.5072 / 0.1276)

Sorry there are no passes over London.